アトラス彗星

C/2022 W2 ( ATLAS )

English version
Home page
Updated on October 14, 2023

---------------------------------------------------------------------

・ プロフィール

発見日 2022年11月24日
発見光度 19.1等
発見者 Asteroid Terrestrial-Impact Last Alert System (ATLAS) search program

・ 写真集

・ 軌道要素

Epoch 2023 Feb. 25.0 TT = JDT 2460000.5
T 2023 Mar. 8.67893 TT                                  Rudenko
q   3.1227963            (2000.0)            P               Q
z  +0.0029941      Peri.  123.25718     -0.18552722     -0.80041137
 +/-0.0000001      Node   320.44924     +0.28628087     +0.51089761
e   0.9906500      Incl.   63.53205     +0.94001219     -0.31356860
>From 237 observations 2022 Nov. 5-2023 May 16, mean residual 0".5.

・ 光度変化

        m1 = 10.5 + 5 logΔ + 10.0 log r

---------------------------------------------------------------------

軌道要素はM.P.E.C. 2023-L37に掲載されたものです。
光度グラフはComet for Windowsで作成したものです。

---------------------------------------------------------------------

Copyright(C) Seiichi Yoshida (comet@aerith.net). All rights reserved.